Tracking 22989 objects as of 8-May-2021
HD Live streaming from Space Station
objects crossing your sky now

THORAD AGENA D DEB

Track THORAD AGENA D DEB now!
10-day predictions


NORAD ID: 19667
Int'l Code: 1970-025QC
Perigee: 1,071.6 km
Apogee: 1,591.9 km
Inclination: 99.7 °
Period: 112.1 minutes
Semi major axis: 7702 km
RCS: 0.0155 m2 (small)
Launch date: April 8, 1970
Source: United States (US)
Launch site: AIR FORCE WESTERN TEST RANGE (AFWTR)

Note: This is SATELLITE DEBRIS
aabbcc
Your satellite tracking list
Your tracking list is empty




NASA's NSSDC Master Catalog

Two Line Element Set (TLE):
1 19667U 70025QC  21126.29620608  .00000316  00000-0  11506-2 0  9993
2 19667  99.7387 245.7707 0337711 308.3711  78.4476 12.84198314541929
Source of the keplerian elements: AFSPC